| time (UTC) | temp F | wind direction | speed MPH | gust MPH | rain 1hr in | rain 24hr in | rain mn in | humidity % | barometer mb |
| 20260904090928 | 56 | 76 | 2.0 | 3.0 | 0.00 | 0.01 | 0.00 | 86 | 1010.1 |
| 20260904090431 | 56 | 73 | 1.0 | 4.0 | 0.00 | 0.01 | 0.00 | 86 | 1010.1 |
| 20260904085928 | 56 | 73 | 0.0 | 4.0 | 0.00 | 0.01 | 0.00 | 86 | 1010.1 |
| 20260904085429 | 56 | 83 | 1.0 | 3.0 | 0.00 | 0.01 | 0.00 | 86 | 1010.0 |
| 20260904084928 | 56 | 83 | 2.0 | 3.0 | 0.00 | 0.01 | 0.00 | 86 | 1010.1 |
| 20260904084430 | 56 | 83 | 2.0 | 3.0 | 0.00 | 0.01 | 0.00 | 86 | 1010.1 |
| 20260904083929 | 56 | 83 | 2.0 | 3.0 | 0.00 | 0.01 | 0.00 | 85 | 1010.1 |
| 20260904083429 | 56 | 83 | 2.0 | 3.0 | 0.00 | 0.01 | 0.00 | 86 | 1010.1 |
| 20260904082928 | 56 | 83 | 2.0 | 3.0 | 0.00 | 0.01 | 0.00 | 85 | 1010.0 |
| 20260904082429 | 56 | 83 | 2.0 | 3.0 | 0.00 | 0.01 | 0.00 | 85 | 1010.1 |
| 20260904081929 | 56 | 83 | 1.0 | 3.0 | 0.00 | 0.01 | 0.00 | 85 | 1010.1 |
| 20260904081659 | 56 | 83 | 2.0 | 5.0 | 0.00 | 0.01 | 0.00 | 85 | 1010.2 |
| 20260904081159 | 56 | 84 | 2.0 | 5.0 | 0.00 | 0.01 | 0.00 | 85 | 1010.2 |
| 20260904080429 | 56 | 81 | 2.0 | 5.0 | 0.00 | 0.01 | 0.00 | 85 | 1010.2 |
| 20260904080151 | 56 | 85 | 2.0 | 5.0 | 0.00 | 0.01 | 0.00 | 85 | 1010.2 |
| 20260904075431 | 56 | 95 | 2.0 | 5.0 | 0.00 | 0.01 | 0.00 | 85 | 1010.3 |
| 20260904074930 | 56 | 91 | 2.0 | 5.0 | 0.00 | 0.01 | 0.00 | 84 | 1010.3 |
| 20260904074421 | 56 | 101 | 2.0 | 5.0 | 0.00 | 0.01 | 0.00 | 85 | 1010.2 |
| 20260904073916 | 56 | 61 | 2.0 | 3.0 | 0.00 | 0.01 | 0.00 | 84 | 1010.1 |
| 20260904073409 | 56 | 61 | 2.0 | 3.0 | 0.00 | 0.01 | 0.00 | 85 | 1010.1 |
| 20260904073125 | 56 | 60 | 2.0 | 4.0 | 0.00 | 0.01 | 0.00 | 85 | 1010.0 |
| 20260904072357 | 56 | 60 | 2.0 | 4.0 | 0.00 | 0.01 | 0.00 | 85 | 1010.0 |
| 20260904071852 | 56 | 58 | 2.0 | 4.0 | 0.00 | 0.01 | 0.00 | 84 | 1010.0 |
| 20260904071603 | 56 | 62 | 2.0 | 4.0 | 0.00 | 0.01 | 0.00 | 84 | 1010.0 |
| 20260904070844 | 56 | 54 | 2.0 | 3.0 | 0.00 | 0.01 | 0.00 | 84 | 1010.0 |
| 20260904070344 | 56 | 47 | 1.0 | 3.0 | 0.00 | 0.01 | 0.00 | 84 | 1009.9 |
| 20260904065843 | 56 | 46 | 1.0 | 3.0 | 0.00 | 0.01 | 0.01 | 84 | 1009.9 |
| 20260904065343 | 56 | 46 | 1.0 | 3.0 | 0.00 | 0.01 | 0.01 | 84 | 1009.9 |
| 20260904064843 | 57 | 45 | 1.0 | 3.0 | 0.00 | 0.01 | 0.01 | 84 | 1010.0 |
| 20260904064342 | 57 | 39 | 1.0 | 3.0 | 0.00 | 0.01 | 0.01 | 84 | 1010.0 |
| 20260904064105 | 57 | 70 | 1.0 | 3.0 | 0.00 | 0.01 | 0.01 | 84 | 1010.0 |
| 20260904063337 | 57 | 67 | 1.0 | 3.0 | 0.00 | 0.01 | 0.01 | 85 | 1010.0 |
| 20260904062835 | 57 | 61 | 2.0 | 3.0 | 0.00 | 0.01 | 0.01 | 84 | 1010.0 |
| 20260904062334 | 57 | 61 | 2.0 | 3.0 | 0.00 | 0.01 | 0.01 | 84 | 1009.9 |
| 20260904061835 | 57 | 61 | 1.0 | 3.0 | 0.00 | 0.01 | 0.01 | 84 | 1010.0 |
| 20260904061333 | 57 | 61 | 1.0 | 3.0 | 0.00 | 0.01 | 0.01 | 84 | 1009.9 |
| 20260904060833 | 57 | 60 | 2.0 | 3.0 | 0.00 | 0.01 | 0.01 | 83 | 1009.9 |
| 20260904060333 | 57 | 60 | 2.0 | 3.0 | 0.00 | 0.01 | 0.01 | 83 | 1009.9 |
| 20260904055832 | 57 | 60 | 2.0 | 3.0 | 0.00 | 0.01 | 0.01 | 83 | 1009.9 |
| 20260904055331 | 57 | 58 | 1.0 | 3.0 | 0.00 | 0.01 | 0.01 | 82 | 1009.9 |
| 20260904054832 | 57 | 58 | 1.0 | 3.0 | 0.00 | 0.01 | 0.01 | 82 | 1009.9 |
| 20260904054332 | 57 | 56 | 0.0 | 0.0 | 0.00 | 0.01 | 0.01 | 82 | 1009.9 |
| 20260904053827 | 57 | 56 | 0.0 | 0.0 | 0.00 | 0.01 | 0.01 | 81 | 1009.7 |
| 20260904053327 | 57 | 54 | 1.0 | 3.0 | 0.00 | 0.01 | 0.01 | 80 | 1009.7 |
| 20260904052825 | 57 | 51 | 2.0 | 3.0 | 0.00 | 0.01 | 0.01 | 81 | 1009.6 |
| 20260904052323 | 56 | 51 | 2.0 | 3.0 | 0.00 | 0.01 | 0.01 | 80 | 1009.5 |
| 20260904051825 | 56 | 50 | 2.0 | 3.0 | 0.00 | 0.01 | 0.01 | 81 | 1009.5 |
| 20260904051323 | 56 | 27 | 2.0 | 3.0 | 0.00 | 0.01 | 0.01 | 81 | 1009.5 |
| 20260904051051 | 57 | 27 | 2.0 | 3.0 | 0.00 | 0.01 | 0.01 | 81 | 1009.5 |
| 20260904050321 | 57 | 16 | 2.0 | 3.0 | 0.00 | 0.01 | 0.01 | 81 | 1009.5 |
| 20260904045819 | 57 | 15 | 2.0 | 3.0 | 0.00 | 0.01 | 0.01 | 80 | 1009.5 |
| 20260904045317 | 57 | 16 | 2.0 | 3.0 | 0.00 | 0.01 | 0.01 | 79 | 1009.5 |
| 20260904044817 | 57 | 16 | 2.0 | 3.0 | 0.00 | 0.01 | 0.01 | 78 | 1009.5 |
| 20260904044315 | 56 | 16 | 2.0 | 3.0 | 0.00 | 0.01 | 0.01 | 78 | 1009.5 |
| 20260904043813 | 56 | 16 | 2.0 | 3.0 | 0.00 | 0.01 | 0.01 | 78 | 1009.4 |
| 20260904043311 | 57 | 16 | 2.0 | 3.0 | 0.00 | 0.01 | 0.01 | 77 | 1009.5 |
| 20260904042809 | 57 | 16 | 2.0 | 3.0 | 0.00 | 0.01 | 0.01 | 77 | 1009.6 |
| 20260904042309 | 57 | 16 | 2.0 | 3.0 | 0.00 | 0.01 | 0.01 | 77 | 1009.6 |
| 20260904041809 | 57 | 16 | 2.0 | 3.0 | 0.00 | 0.01 | 0.01 | 77 | 1009.6 |
| 20260904041304 | 57 | 13 | 2.0 | 3.0 | 0.00 | 0.01 | 0.01 | 76 | 1009.6 |
| 20260904040539 | 58 | 13 | 2.0 | 3.0 | 0.00 | 0.01 | 0.01 | 76 | 1009.7 |
| 20260904035805 | 57 | 12 | 2.0 | 3.0 | 0.00 | 0.01 | 0.01 | 76 | 1009.7 |
| 20260904035306 | 57 | 12 | 2.0 | 3.0 | 0.00 | 0.01 | 0.01 | 76 | 1009.7 |
| 20260904034805 | 57 | 12 | 2.0 | 3.0 | 0.00 | 0.01 | 0.01 | 76 | 1009.6 |
| 20260904034305 | 58 | 12 | 2.0 | 3.0 | 0.00 | 0.01 | 0.01 | 75 | 1009.6 |
| 20260904033804 | 58 | 12 | 2.0 | 3.0 | 0.00 | 0.01 | 0.01 | 75 | 1009.6 |
| 20260904033305 | 57 | 11 | 2.0 | 3.0 | 0.00 | 0.01 | 0.01 | 76 | 1009.6 |
| 20260904032804 | 58 | 2 | 2.0 | 3.0 | 0.00 | 0.01 | 0.01 | 75 | 1009.5 |
| 20260904032306 | 58 | 347 | 2.0 | 3.0 | 0.00 | 0.01 | 0.01 | 75 | 1009.4 |
| 20260904031805 | 58 | 344 | 2.0 | 3.0 | 0.00 | 0.01 | 0.01 | 75 | 1009.4 |
| 20260904031304 | 58 | 343 | 2.0 | 3.0 | 0.00 | 0.01 | 0.01 | 75 | 1009.3 |
| 20260904030805 | 58 | 336 | 2.0 | 3.0 | 0.00 | 0.01 | 0.01 | 74 | 1009.3 |
| 20260904030544 | 58 | 335 | 2.0 | 2.0 | 0.00 | 0.01 | 0.01 | 74 | 1009.3 |
| 20260904025804 | 58 | 335 | 2.0 | 2.0 | 0.00 | 0.01 | 0.01 | 74 | 1009.3 |
| 20260904025306 | 59 | 334 | 2.0 | 2.0 | 0.00 | 0.01 | 0.01 | 74 | 1009.3 |
| 20260904024803 | 59 | 319 | 1.0 | 2.0 | 0.00 | 0.01 | 0.01 | 73 | 1009.2 |
| 20260904024302 | 60 | 319 | 2.0 | 2.0 | 0.00 | 0.01 | 0.01 | 72 | 1009.1 |
| 20260904023800 | 60 | 313 | 1.0 | 2.0 | 0.00 | 0.01 | 0.01 | 72 | 1009.2 |
| 20260904023252 | 60 | 313 | 1.0 | 2.0 | 0.00 | 0.01 | 0.01 | 71 | 1009.2 |
| 20260904022746 | 61 | 313 | 0.0 | 2.0 | 0.00 | 0.01 | 0.01 | 71 | 1009.2 |
| 20260904022240 | 62 | 309 | 0.0 | 2.0 | 0.00 | 0.01 | 0.01 | 70 | 1009.1 |
| 20260904021736 | 62 | 308 | 0.0 | 2.0 | 0.00 | 0.01 | 0.01 | 70 | 1009.1 |
| 20260904021235 | 62 | 308 | 1.0 | 2.0 | 0.00 | 0.01 | 0.01 | 68 | 1009.0 |
| 20260904020734 | 63 | 308 | 1.0 | 3.0 | 0.00 | 0.01 | 0.01 | 67 | 1009.0 |
| 20260904020235 | 63 | 308 | 1.0 | 3.0 | 0.00 | 0.01 | 0.01 | 67 | 1008.9 |
| 20260904015734 | 63 | 308 | 2.0 | 3.0 | 0.00 | 0.01 | 0.01 | 66 | 1008.9 |
| 20260904015235 | 63 | 308 | 2.0 | 3.0 | 0.00 | 0.01 | 0.01 | 67 | 1009.0 |
| 20260904014733 | 63 | 308 | 2.0 | 4.0 | 0.00 | 0.01 | 0.01 | 67 | 1008.9 |
| 20260904014232 | 63 | 309 | 2.0 | 4.0 | 0.00 | 0.01 | 0.01 | 67 | 1009.0 |
| 20260904013734 | 63 | 309 | 2.0 | 4.0 | 0.00 | 0.01 | 0.01 | 66 | 1008.9 |
| 20260904013500 | 64 | 312 | 2.0 | 5.0 | 0.00 | 0.01 | 0.01 | 67 | 1009.0 |
| 20260904012731 | 64 | 311 | 2.0 | 5.0 | 0.00 | 0.01 | 0.01 | 66 | 1009.0 |
| 20260904012501 | 64 | 309 | 2.0 | 5.0 | 0.00 | 0.01 | 0.01 | 66 | 1008.9 |
| 20260904011731 | 64 | 309 | 2.0 | 5.0 | 0.00 | 0.01 | 0.01 | 65 | 1009.0 |
| 20260904011230 | 64 | 316 | 2.0 | 7.0 | 0.00 | 0.01 | 0.01 | 67 | 1008.9 |
| 20260904011004 | 64 | 309 | 3.0 | 7.0 | 0.00 | 0.01 | 0.01 | 67 | 1009.0 |
| 20260904010230 | 63 | 304 | 3.0 | 5.0 | 0.00 | 0.01 | 0.01 | 67 | 1009.0 |
| 20260904005730 | 63 | 316 | 3.0 | 5.0 | 0.00 | 0.01 | 0.01 | 67 | 1008.9 |
| 20260904005231 | 63 | 323 | 3.0 | 5.0 | 0.00 | 0.01 | 0.01 | 68 | 1008.9 |
| 20260904004728 | 64 | 308 | 3.0 | 5.0 | 0.00 | 0.01 | 0.01 | 67 | 1008.8 |
| 20260904004222 | 63 | 303 | 4.0 | 7.0 | 0.00 | 0.01 | 0.01 | 68 | 1008.8 |
| 20260904003716 | 63 | 315 | 3.0 | 7.0 | 0.00 | 0.01 | 0.01 | 68 | 1008.8 |
| 20260904003441 | 64 | 333 | 3.0 | 6.0 | 0.00 | 0.01 | 0.01 | 67 | 1008.6 |
| 20260904002935 | 65 | 317 | 4.0 | 8.0 | 0.00 | 0.02 | 0.01 | 64 | 1008.7 |
| 20260904002201 | 65 | 295 | 4.0 | 8.0 | 0.00 | 0.02 | 0.01 | 66 | 1008.6 |
| 20260904001702 | 65 | 314 | 5.0 | 9.0 | 0.00 | 0.03 | 0.01 | 65 | 1008.7 |
| 20260904001202 | 65 | 306 | 5.0 | 9.0 | 0.00 | 0.04 | 0.01 | 67 | 1008.6 |
| 20260904000702 | 65 | 295 | 5.0 | 10.0 | 0.00 | 0.05 | 0.01 | 65 | 1008.5 |
| 20260904000203 | 65 | 295 | 5.0 | 10.0 | 0.00 | 0.06 | 0.01 | 63 | 1008.6 |
| 20260903235702 | 65 | 309 | 3.0 | 9.0 | 0.00 | 0.06 | 0.01 | 66 | 1008.6 |
| 20260903235202 | 65 | 307 | 3.0 | 8.0 | 0.00 | 0.07 | 0.01 | 65 | 1008.6 |
| 20260903234701 | 65 | 346 | 4.0 | 6.0 | 0.00 | 0.08 | 0.01 | 65 | 1008.6 |
| 20260903234430 | 65 | 309 | 3.0 | 6.0 | 0.00 | 0.08 | 0.01 | 62 | 1008.6 |
| 20260903233701 | 66 | 320 | 2.0 | 5.0 | 0.00 | 0.09 | 0.01 | 60 | 1008.6 |
| 20260903233437 | 66 | 334 | 3.0 | 8.0 | 0.00 | 0.09 | 0.01 | 61 | 1008.6 |
| 20260903233023 | 65 | 317 | 5.0 | 11.0 | 0.00 | 0.09 | 0.01 | 61 | 1008.6 |
| 20260903232202 | 66 | 295 | 4.0 | 11.0 | 0.00 | 0.09 | 0.01 | 61 | 1008.5 |
| 20260903231201 | 66 | 19 | 3.0 | 7.0 | 0.00 | 0.09 | 0.01 | 62 | 1008.6 |
| 20260903230703 | 64 | 314 | 3.0 | 6.0 | 0.00 | 0.09 | 0.01 | 66 | 1008.6 |
| 20260903230201 | 65 | 320 | 2.0 | 5.0 | 0.00 | 0.09 | 0.01 | 66 | 1008.6 |
| 20260903225657 | 65 | 290 | 1.0 | 4.0 | 0.00 | 0.09 | 0.01 | 65 | 1008.7 |
| 20260903225152 | 64 | 230 | 1.0 | 2.0 | 0.00 | 0.09 | 0.01 | 66 | 1008.6 |
| 20260903224652 | 64 | 230 | 1.0 | 4.0 | 0.00 | 0.09 | 0.01 | 68 | 1008.7 |
| 20260903224152 | 64 | 226 | 1.0 | 4.0 | 0.00 | 0.09 | 0.01 | 66 | 1008.7 |
| 20260903223652 | 64 | 309 | 2.0 | 4.0 | 0.00 | 0.09 | 0.01 | 65 | 1008.8 |
| 20260903223152 | 64 | 224 | 2.0 | 9.0 | 0.00 | 0.09 | 0.01 | 67 | 1008.8 |
| 20260903222921 | 65 | 22 | 3.0 | 10.0 | 0.00 | 0.09 | 0.01 | 65 | 1008.8 |
| 20260903222151 | 65 | 83 | 4.0 | 10.0 | 0.00 | 0.09 | 0.01 | 65 | 1008.8 |
| 20260903221648 | 66 | 154 | 3.0 | 7.0 | 0.00 | 0.09 | 0.01 | 62 | 1008.8 |
| 20260903221148 | 66 | 314 | 3.0 | 9.0 | 0.00 | 0.09 | 0.01 | 64 | 1008.7 |
| 20260903220647 | 65 | 28 | 3.0 | 9.0 | 0.00 | 0.09 | 0.01 | 65 | 1008.9 |
| 20260903220145 | 65 | 56 | 4.0 | 12.0 | 0.00 | 0.09 | 0.01 | 65 | 1008.9 |
| 20260903215913 | 65 | 71 | 5.0 | 12.0 | 0.00 | 0.09 | 0.01 | 64 | 1009.0 |
| 20260903215146 | 65 | 59 | 4.0 | 12.0 | 0.00 | 0.09 | 0.01 | 63 | 1009.0 |
| 20260903214146 | 66 | 48 | 5.0 | 11.0 | 0.00 | 0.09 | 0.01 | 64 | 1009.0 |
| 20260903213647 | 66 | 85 | 5.0 | 11.0 | 0.00 | 0.09 | 0.01 | 65 | 1009.0 |
| 20260903213145 | 65 | 104 | 4.0 | 11.0 | 0.00 | 0.09 | 0.01 | 66 | 1009.0 |
| 20260903212642 | 64 | 51 | 4.0 | 12.0 | 0.00 | 0.09 | 0.01 | 65 | 1009.0 |
| 20260903212411 | 64 | 19 | 5.0 | 12.0 | 0.00 | 0.09 | 0.01 | 67 | 1009.0 |
| 20260903211641 | 64 | 101 | 5.0 | 10.0 | 0.00 | 0.09 | 0.01 | 65 | 1009.0 |
| 20260903211147 | 64 | 51 | 4.0 | 9.0 | 0.00 | 0.09 | 0.01 | 67 | 1009.0 |
| 20260903210907 | 64 | 44 | 3.0 | 8.0 | 0.00 | 0.09 | 0.01 | 66 | 1008.9 |
| 20260903210146 | 64 | 42 | 4.0 | 10.0 | 0.00 | 0.09 | 0.01 | 67 | 1009.0 |
| 20260903205644 | 63 | 68 | 4.0 | 11.0 | 0.00 | 0.09 | 0.01 | 67 | 1009.0 |
| 20260903205141 | 63 | 326 | 4.0 | 11.0 | 0.00 | 0.09 | 0.01 | 68 | 1009.0 |
| 20260903204642 | 63 | 332 | 3.0 | 11.0 | 0.00 | 0.09 | 0.01 | 68 | 1008.8 |
| 20260903204142 | 63 | 359 | 3.0 | 9.0 | 0.00 | 0.09 | 0.01 | 68 | 1008.8 |
| 20260903203639 | 63 | 39 | 3.0 | 9.0 | 0.00 | 0.09 | 0.01 | 67 | 1008.7 |
| 20260903203138 | 63 | 51 | 4.0 | 9.0 | 0.00 | 0.09 | 0.01 | 67 | 1008.8 |
| 20260903202637 | 63 | 82 | 3.0 | 9.0 | 0.00 | 0.09 | 0.01 | 69 | 1008.8 |
| 20260903202137 | 62 | 34 | 3.0 | 7.0 | 0.00 | 0.09 | 0.01 | 71 | 1008.7 |
| 20260903201638 | 62 | 26 | 4.0 | 13.0 | 0.00 | 0.09 | 0.01 | 71 | 1008.9 |
| 20260903201138 | 62 | 91 | 4.0 | 13.0 | 0.00 | 0.09 | 0.01 | 71 | 1008.8 |
| 20260903200638 | 62 | 31 | 3.0 | 10.0 | 0.00 | 0.09 | 0.01 | 71 | 1008.7 |
| 20260903200137 | 62 | 6 | 2.0 | 10.0 | 0.00 | 0.09 | 0.01 | 71 | 1008.8 |
| 20260903195909 | 63 | 35 | 3.0 | 10.0 | 0.00 | 0.09 | 0.01 | 71 | 1008.7 |
| 20260903195131 | 63 | 80 | 5.0 | 14.0 | 0.00 | 0.09 | 0.01 | 70 | 1008.7 |
| 20260903194633 | 63 | 112 | 4.0 | 14.0 | 0.00 | 0.09 | 0.01 | 70 | 1008.6 |
| 20260903194354 | 62 | 290 | 2.0 | 7.0 | 0.00 | 0.09 | 0.01 | 72 | 1008.4 |
| 20260903193631 | 62 | 94 | 1.0 | 7.0 | 0.00 | 0.09 | 0.01 | 73 | 1008.6 |
| 20260903193132 | 62 | 88 | 1.0 | 5.0 | 0.00 | 0.09 | 0.01 | 73 | 1008.5 |
| 20260903192631 | 62 | 93 | 2.0 | 6.0 | 0.00 | 0.09 | 0.01 | 71 | 1008.4 |
| 20260903192132 | 62 | 203 | 2.0 | 6.0 | 0.00 | 0.09 | 0.01 | 73 | 1008.4 |
| 20260903191632 | 62 | 295 | 2.0 | 9.0 | 0.00 | 0.09 | 0.01 | 71 | 1008.4 |
| 20260903191355 | 62 | 97 | 2.0 | 9.0 | 0.00 | 0.09 | 0.01 | 71 | 1008.3 |
| 20260903190634 | 63 | 74 | 1.0 | 5.0 | 0.00 | 0.09 | 0.01 | 71 | 1008.3 |
| 20260903190133 | 63 | 313 | 2.0 | 4.0 | 0.00 | 0.09 | 0.01 | 75 | 1008.3 |
| 20260903185901 | 62 | 328 | 2.0 | 6.0 | 0.00 | 0.09 | 0.01 | 73 | 1008.2 |
| 20260903185128 | 63 | 111 | 2.0 | 6.0 | 0.00 | 0.09 | 0.01 | 71 | 1008.3 |
| 20260903184630 | 63 | 108 | 2.0 | 8.0 | 0.00 | 0.09 | 0.01 | 70 | 1008.3 |
| 20260903184129 | 62 | 359 | 3.0 | 10.0 | 0.00 | 0.09 | 0.01 | 74 | 1008.3 |
| 20260903183630 | 62 | 20 | 4.0 | 11.0 | 0.00 | 0.09 | 0.01 | 72 | 1008.2 |
| 20260903183130 | 62 | 80 | 4.0 | 11.0 | 0.00 | 0.09 | 0.01 | 74 | 1008.1 |
| 20260903182629 | 62 | 97 | 4.0 | 13.0 | 0.00 | 0.09 | 0.01 | 74 | 1008.2 |
| 20260903182356 | 62 | 93 | 5.0 | 15.0 | 0.00 | 0.09 | 0.01 | 76 | 1008.1 |
| 20260903181629 | 62 | 99 | 5.0 | 15.0 | 0.00 | 0.09 | 0.01 | 75 | 1008.2 |
| 20260903181129 | 61 | 285 | 5.0 | 12.0 | 0.00 | 0.09 | 0.01 | 76 | 1008.2 |
| 20260903180629 | 61 | 336 | 5.0 | 13.0 | 0.00 | 0.09 | 0.01 | 77 | 1008.2 |
| 20260903180129 | 60 | 62 | 5.0 | 13.0 | 0.00 | 0.09 | 0.01 | 79 | 1008.0 |
| 20260903175629 | 60 | 23 | 4.0 | 12.0 | 0.00 | 0.09 | 0.01 | 80 | 1008.0 |
| 20260903175129 | 59 | 332 | 4.0 | 11.0 | 0.00 | 0.09 | 0.01 | 81 | 1008.0 |
| 20260903174629 | 58 | 318 | 4.0 | 11.0 | 0.00 | 0.09 | 0.01 | 81 | 1007.9 |
| 20260903174129 | 58 | 357 | 4.0 | 11.0 | 0.00 | 0.09 | 0.01 | 81 | 1007.9 |
| 20260903173629 | 58 | 72 | 4.0 | 11.0 | 0.00 | 0.09 | 0.01 | 82 | 1007.8 |
| 20260903173129 | 58 | 6 | 4.0 | 11.0 | 0.00 | 0.09 | 0.01 | 82 | 1007.8 |
| 20260903172629 | 58 | 65 | 4.0 | 10.0 | 0.00 | 0.09 | 0.01 | 82 | 1007.7 |
| 20260903172132 | 58 | 62 | 4.0 | 12.0 | 0.00 | 0.09 | 0.01 | 82 | 1007.6 |
| 20260903171624 | 58 | 48 | 4.0 | 12.0 | 0.00 | 0.09 | 0.01 | 82 | 1007.6 |
| 20260903171117 | 58 | 53 | 4.0 | 11.0 | 0.00 | 0.09 | 0.01 | 82 | 1007.7 |
| 20260903170841 | 58 | 22 | 3.0 | 14.0 | 0.00 | 0.09 | 0.01 | 82 | 1007.6 |
| 20260903170115 | 58 | 8 | 3.0 | 14.0 | 0.00 | 0.09 | 0.01 | 82 | 1007.6 |
| 20260903165616 | 58 | 52 | 3.0 | 11.0 | 0.00 | 0.09 | 0.01 | 82 | 1007.6 |
| 20260903165115 | 58 | 19 | 3.0 | 11.0 | 0.00 | 0.09 | 0.01 | 82 | 1007.7 |
| 20260903164615 | 58 | 51 | 3.0 | 9.0 | 0.00 | 0.09 | 0.01 | 83 | 1007.5 |
| 20260903164115 | 58 | 327 | 3.0 | 8.0 | 0.00 | 0.09 | 0.01 | 83 | 1007.5 |
| 20260903163842 | 58 | 353 | 3.0 | 8.0 | 0.00 | 0.09 | 0.01 | 84 | 1007.5 |
| 20260903163115 | 57 | 145 | 2.0 | 6.0 | 0.00 | 0.09 | 0.01 | 84 | 1007.4 |
| 20260903162613 | 57 | 26 | 1.0 | 6.0 | 0.00 | 0.09 | 0.01 | 84 | 1007.5 |
| 20260903162111 | 57 | 245 | 2.0 | 5.0 | 0.00 | 0.09 | 0.01 | 84 | 1007.5 |
| 20260903161108 | 57 | 26 | 2.0 | 7.0 | 0.00 | 0.09 | 0.01 | 84 | 1007.4 |
| 20260903160605 | 57 | 41 | 3.0 | 10.0 | 0.00 | 0.09 | 0.01 | 84 | 1007.3 |
| 20260903160105 | 57 | 327 | 3.0 | 10.0 | 0.00 | 0.09 | 0.01 | 84 | 1007.2 |
| 20260903155826 | 57 | 94 | 3.0 | 15.0 | 0.00 | 0.09 | 0.01 | 84 | 1007.2 |
| 20260903155102 | 57 | 78 | 3.0 | 15.0 | 0.00 | 0.09 | 0.01 | 84 | 1007.1 |
| 20260903154826 | 57 | 341 | 3.0 | 10.0 | 0.00 | 0.09 | 0.01 | 84 | 1007.0 |
| 20260903154101 | 57 | 105 | 3.0 | 11.0 | 0.00 | 0.09 | 0.01 | 84 | 1007.0 |
| 20260903153601 | 57 | 19 | 3.0 | 11.0 | 0.00 | 0.09 | 0.01 | 85 | 1007.0 |
| 20260903153059 | 57 | 14 | 3.0 | 9.0 | 0.00 | 0.09 | 0.01 | 85 | 1006.9 |
| 20260903152553 | 57 | 51 | 3.0 | 9.0 | 0.00 | 0.09 | 0.01 | 85 | 1006.9 |
| 20260903152310 | 57 | 347 | 2.0 | 7.0 | 0.00 | 0.09 | 0.01 | 85 | 1007.0 |
| 20260903151044 | 57 | 39 | 2.0 | 7.0 | 0.00 | 0.09 | 0.01 | 86 | 1007.1 |
| 20260903150543 | 56 | 88 | 1.0 | 6.0 | 0.00 | 0.09 | 0.01 | 86 | 1007.1 |
| 20260903150313 | 56 | 329 | 2.0 | 8.0 | 0.00 | 0.09 | 0.01 | 87 | 1007.0 |
| 20260903145809 | 56 | 355 | 2.0 | 8.0 | 0.00 | 0.09 | 0.01 | 87 | 1006.9 |
| 20260903145043 | 56 | 79 | 2.0 | 6.0 | 0.00 | 0.09 | 0.01 | 87 | 1006.8 |
| 20260903144543 | 56 | 96 | 2.0 | 6.0 | 0.00 | 0.09 | 0.01 | 88 | 1006.7 |
| 20260903144043 | 56 | 347 | 2.0 | 8.0 | 0.00 | 0.09 | 0.01 | 88 | 1006.7 |
| 20260903143543 | 56 | 96 | 2.0 | 8.0 | 0.00 | 0.09 | 0.01 | 88 | 1006.6 |
| 20260903143042 | 56 | 10 | 2.0 | 8.0 | 0.00 | 0.09 | 0.01 | 88 | 1006.5 |
| 20260903142543 | 55 | 64 | 2.0 | 7.0 | 0.00 | 0.09 | 0.01 | 89 | 1006.5 |
| 20260903142312 | 55 | 50 | 3.0 | 11.0 | 0.00 | 0.09 | 0.01 | 89 | 1006.4 |
| 20260903141543 | 55 | 82 | 3.0 | 11.0 | 0.01 | 0.09 | 0.01 | 89 | 1006.3 |
| 20260903141043 | 55 | 18 | 3.0 | 6.0 | 0.01 | 0.09 | 0.01 | 89 | 1006.2 |
| 20260903140543 | 55 | 54 | 3.0 | 9.0 | 0.01 | 0.09 | 0.01 | 89 | 1006.1 |
| 20260903140043 | 55 | 70 | 3.0 | 13.0 | 0.01 | 0.09 | 0.01 | 89 | 1006.1 |
| 20260903135816 | 55 | 88 | 3.0 | 13.0 | 0.01 | 0.09 | 0.01 | 89 | 1006.0 |
| 20260903135044 | 55 | 347 | 5.0 | 19.0 | 0.01 | 0.09 | 0.01 | 89 | 1005.9 |
| 20260903134543 | 55 | 95 | 4.0 | 19.0 | 0.01 | 0.09 | 0.01 | 89 | 1005.9 |
| 20260903134324 | 55 | 149 | 5.0 | 11.0 | 0.01 | 0.09 | 0.01 | 89 | 1005.8 |
| 20260903133543 | 55 | 121 | 5.0 | 11.0 | 0.01 | 0.09 | 0.01 | 89 | 1005.8 |
| 20260903133320 | 55 | 113 | 5.0 | 14.0 | 0.01 | 0.09 | 0.01 | 88 | 1005.7 |
| 20260903132546 | 55 | 305 | 5.0 | 16.0 | 0.01 | 0.09 | 0.01 | 87 | 1005.6 |
| 20260903132045 | 56 | 132 | 5.0 | 22.0 | 0.01 | 0.09 | 0.00 | 86 | 1005.7 |
| 20260903131813 | 56 | 28 | 5.0 | 22.0 | 0.00 | 0.08 | 0.00 | 85 | 1005.5 |
| 20260903131042 | 56 | 69 | 4.0 | 14.0 | 0.00 | 0.08 | 0.00 | 84 | 1005.4 |
| 20260903130542 | 56 | 26 | 4.0 | 14.0 | 0.00 | 0.08 | 0.00 | 83 | 1005.4 |
| 20260903130318 | 56 | 44 | 4.0 | 11.0 | 0.00 | 0.08 | 0.00 | 83 | 1005.3 |
| 20260903125540 | 57 | 203 | 4.0 | 18.0 | 0.00 | 0.08 | 0.00 | 82 | 1005.2 |
| 20260903125039 | 57 | 339 | 5.0 | 18.0 | 0.00 | 0.08 | 0.00 | 82 | 1005.2 |
| 20260903124540 | 57 | 22 | 4.0 | 16.0 | 0.00 | 0.08 | 0.00 | 82 | 1005.2 |
| 20260903124039 | 57 | 71 | 3.0 | 12.0 | 0.00 | 0.08 | 0.00 | 82 | 1005.3 |
| 20260903123539 | 57 | 20 | 2.0 | 16.0 | 0.00 | 0.08 | 0.00 | 82 | 1005.3 |
| 20260903123039 | 57 | 57 | 4.0 | 16.0 | 0.00 | 0.08 | 0.00 | 82 | 1005.2 |
| 20260903122804 | 57 | 74 | 5.0 | 18.0 | 0.00 | 0.08 | 0.00 | 82 | 1005.2 |
| 20260903122034 | 57 | 151 | 3.0 | 18.0 | 0.00 | 0.08 | 0.00 | 82 | 1005.2 |
| 20260903121533 | 57 | 228 | 2.0 | 10.0 | 0.00 | 0.08 | 0.00 | 82 | 1005.0 |
| 20260903121030 | 57 | 94 | 3.0 | 11.0 | 0.00 | 0.08 | 0.00 | 82 | 1005.0 |
| 20260903120531 | 57 | 26 | 3.0 | 11.0 | 0.00 | 0.08 | 0.00 | 81 | 1005.2 |
| 20260903120030 | 57 | 262 | 4.0 | 13.0 | 0.00 | 0.08 | 0.00 | 81 | 1004.9 |
| 20260903115803 | 57 | 106 | 5.0 | 13.0 | 0.00 | 0.08 | 0.00 | 81 | 1004.9 |
| 20260903115030 | 57 | 64 | 5.0 | 15.0 | 0.00 | 0.08 | 0.00 | 81 | 1004.9 |
| 20260903114529 | 57 | 123 | 4.0 | 15.0 | 0.00 | 0.08 | 0.00 | 81 | 1005.0 |
| 20260903114029 | 57 | 91 | 3.0 | 15.0 | 0.00 | 0.08 | 0.00 | 81 | 1004.9 |
| 20260903113529 | 57 | 96 | 4.0 | 15.0 | 0.00 | 0.08 | 0.00 | 81 | 1004.9 |
| 20260903113030 | 57 | 134 | 4.0 | 18.0 | 0.00 | 0.08 | 0.00 | 81 | 1004.9 |
| 20260903112528 | 57 | 88 | 6.0 | 21.0 | 0.00 | 0.08 | 0.00 | 81 | 1004.9 |
| 20260903112029 | 57 | 58 | 6.0 | 21.0 | 0.00 | 0.08 | 0.00 | 81 | 1004.8 |
| 20260903111529 | 57 | 105 | 5.0 | 17.0 | 0.00 | 0.08 | 0.00 | 81 | 1004.8 |
| 20260903111030 | 57 | 74 | 5.0 | 17.0 | 0.00 | 0.08 | 0.00 | 81 | 1004.7 |
| 20260903110525 | 57 | 147 | 5.0 | 14.0 | 0.00 | 0.08 | 0.00 | 81 | 1004.7 |
| 20260903110019 | 57 | 83 | 5.0 | 14.0 | 0.00 | 0.08 | 0.00 | 81 | 1004.6 |
| 20260903105512 | 57 | 103 | 6.0 | 16.0 | 0.00 | 0.08 | 0.00 | 81 | 1004.7 |
| 20260903105006 | 57 | 143 | 6.0 | 16.0 | 0.00 | 0.08 | 0.00 | 81 | 1004.7 |
| 20260903104503 | 57 | 122 | 5.0 | 14.0 | 0.00 | 0.08 | 0.00 | 81 | 1004.7 |
| 20260903104002 | 57 | 95 | 5.0 | 13.0 | 0.00 | 0.08 | 0.00 | 81 | 1004.7 |
| 20260903103502 | 57 | 159 | 5.0 | 20.0 | 0.00 | 0.08 | 0.00 | 81 | 1004.6 |
| 20260903103001 | 57 | 95 | 5.0 | 20.0 | 0.00 | 0.08 | 0.00 | 81 | 1004.6 |
| 20260903102504 | 57 | 96 | 6.0 | 15.0 | 0.00 | 0.08 | 0.00 | 81 | 1004.6 |
| 20260903102004 | 58 | 118 | 6.0 | 15.0 | 0.00 | 0.08 | 0.00 | 81 | 1004.6 |
| 20260903101504 | 57 | 153 | 6.0 | 15.0 | 0.00 | 0.08 | 0.00 | 81 | 1004.5 |
| 20260903101229 | 57 | 141 | 6.0 | 15.0 | 0.00 | 0.08 | 0.00 | 81 | 1004.6 |
| 20260903100502 | 58 | 70 | 5.0 | 14.0 | 0.00 | 0.08 | 0.00 | 81 | 1004.5 |
| 20260903100001 | 58 | 30 | 4.0 | 13.0 | 0.00 | 0.08 | 0.00 | 81 | 1004.6 |
| 20260903095501 | 58 | 71 | 6.0 | 19.0 | 0.00 | 0.08 | 0.00 | 81 | 1004.6 |
| 20260903095233 | 58 | 90 | 7.0 | 19.0 | 0.00 | 0.08 | 0.00 | 82 | 1004.6 |
| 20260903094501 | 58 | 85 | 9.0 | 19.0 | 0.00 | 0.08 | 0.00 | 82 | 1004.6 |
| 20260903094001 | 58 | 133 | 8.0 | 19.0 | 0.00 | 0.08 | 0.00 | 82 | 1004.5 |
| 20260903093727 | 58 | 99 | 7.0 | 17.0 | 0.00 | 0.08 | 0.00 | 82 | 1004.4 |
| 20260903093000 | 58 | 96 | 8.0 | 17.0 | 0.00 | 0.08 | 0.00 | 82 | 1004.5 |
| 20260903092501 | 58 | 120 | 7.0 | 19.0 | 0.00 | 0.08 | 0.00 | 83 | 1004.4 |
| 20260903092000 | 58 | 90 | 6.0 | 19.0 | 0.00 | 0.08 | 0.00 | 83 | 1004.5 |
| 20260903091501 | 58 | 135 | 4.0 | 11.0 | 0.00 | 0.08 | 0.00 | 83 | 1004.5 |
| 20260903091236 | 58 | 99 | 4.0 | 17.0 | 0.00 | 0.08 | 0.00 | 83 | 1004.5 |